Regional Weather Roundup
Issued by NWS Charleston, WV

Home | Current Version | Previous Version | Text Only | Print | Product List | Glossary Off
Versions: 1 2 3 4 5 6 7 8 9 10 11 12 13 14 15 16 17 18 19 20 21 22 23 24 25 26 27 28

000
ASUS41 KRLX 170910
RWRRLX
West Virginia Regional Weather Roundup
National Weather Service Charleston WV
400 AM EST WED JAN 17 2018

Note: "fair" indicates few or no clouds below 12,000 feet with no
significant weather and/or obstructions to visibility.

WVZ003-171000-
Northern Panhandle of West Virginia

CITY           SKY/WX    TMP DP  RH WIND       PRES   REMARKS
WHEELING       CLOUDY     5   0  79 W8        30.45F WCI  -8
$$

WVZ009-171000-
Northwest West Virginia

CITY           SKY/WX    TMP DP  RH WIND       PRES   REMARKS
PARKERSBURG    LGT SNOW   5   1  83 CALM      30.55S VSB 1
$$

WVZ006-171000-
Western West Virginia

CITY           SKY/WX    TMP DP  RH WIND       PRES   REMARKS
HUNTINGTON     LGT SNOW   6   1  80 SW3       30.53S
$$

WVZ015-171000-
West Central West Virginia

CITY           SKY/WX    TMP DP  RH WIND       PRES   REMARKS
CHARLESTON     FLURRIES  11   3  70 NW5       30.50S WCI   3
$$

WVZ022-031-171000-
North Central West Virginia

CITY           SKY/WX    TMP DP  RH WIND       PRES   REMARKS
CLARKSBURG     FLURRIES   9   3  77 W5        30.45S WCI   1
MORGANTOWN     CLOUDY    10   4  76 W6        30.45R WCI   0
$$

WVZ025-035-042-045-171000-
Southern West Virginia

CITY           SKY/WX    TMP DP  RH WIND       PRES   REMARKS
BECKLEY        CLOUDY    10   6  84 N7        30.31R WCI  -1
LOGAN          FLURRIES   9   5  85 CALM      30.43R
BLUEFIELD      LGT SNOW  11   6  81 NW5       30.26S WCI   3
LEWISBURG      CLOUDY    15  10  78 W6        30.29S WCI   7
$$

WVZ047-171000-
Northern Mountains of West Virginia

CITY           SKY/WX    TMP DP  RH WIND       PRES   REMARKS
ELKINS         LGT SNOW  12   7  80 NW8       30.34F WCI   0
$$

WVZ052-171000-
Eastern Panhandle of West Virginia

CITY           SKY/WX    TMP DP  RH WIND       PRES   REMARKS
MARTINSBURG    CLOUDY    23  16  74 N9        30.36S
PETERSBURG     LGT SNOW  21  13  71 N6        30.36R
$$




USA.gov is the U.S. government's official web portal to all federal, state and local government web resources and services.